Content
SEND FEEDBACK

Daily
Averages
Monthly
Summary
United States of America

MAURICEVILLE, TEXAS


Home > North America > United States > Texas
Elevation: 6 meters     Latitude: 30 14N     Longitude: 093 44W

WEATHER
 
SELECT A DAY
Number of Records: 107,977;   Date Range: 8/25/05 - 7/21/14
 
SHARE

PRINT THIS DATA

[ ← Previous Day ]
WEATHER ALMANAC - 28 JULY, 2013
[ Next Day → ]
[ °F ]   °C
Weather ElementAverageHighLow
Temperature25.9 °C30.5 °C (1:15 pm)23.7 °C (5:35 am)
Dewpoint23.7 °C25.2 °C (7:55 pm)22.5 °C (2:15 am)
Humidity87.5 %96 % (9:35 pm)70 % (12:55 pm)
Barometer1014.9 hPa1016.6 hPa (11:55 pm)1013.5 hPa (1:55 am)
Wind Speed5.3 km/h20.4 km/h (1:35 pm)
Wind Gust25.9 km/h (1:35 pm)
Weather ElementAverage
Visibility14 km
Wind DirectionNE (49.9 °)

Weather ElementTotal
Precipitation0.51 mm
Cooling Degree Days8.8 (Base 18.3)
Growing Degree Days17.1 (Base 10)
Averaged from 71 records on 28 July, 2013
WEATHER CONDITIONS BREAKOUT
WIND DIRECTION BREAKOUT
WEATHER BY HOUR - 28 JULY, 2013
[ °F ]   °C
Local TimeTemperatureDewpointHumidityBarometerVisibilityWind DirectionWind SpeedGust SpeedPrecipitationEventsConditions
12:35 AM25.6 °C23.8 °C90 %1013.9 hPa16.1 kmNNE (30°)13 km/hOvercast
12:55 AM25.6 °C23 °C85 %1013.9 hPa16.1 kmNNE (30°)9.3 km/hMostly Cloudy
1:15 AM25.6 °C23 °C85 %1013.9 hPa16.1 kmNNE (20°)7.4 km/hMostly Cloudy
1:35 AM25.2 °C22.7 °C86 %1013.9 hPa16.1 kmNE (40°)9.3 km/hMostly Cloudy
1:55 AM24.7 °C22.6 °C88 %1013.5 hPa16.1 kmNNE (30°)13 km/hScattered Clouds
2:15 AM24.5 °C22.5 °C89 %1013.5 hPa16.1 kmNE (40°)7.4 km/hScattered Clouds
2:35 AM24.6 °C22.5 °C88 %1013.5 hPa16.1 kmNE (50°)11.1 km/hMostly Cloudy
2:55 AM24.5 °C22.5 °C89 %1013.5 hPa16.1 kmNNE (30°)7.4 km/hOvercast
3:15 AM24.6 °C22.5 °C88 %1013.5 hPa16.1 kmENE (60°)13 km/hThunderstormOvercast
3:35 AM24.5 °C22.6 °C89 %1013.5 hPa16.1 kmENE (70°)11.1 km/hOvercast
3:55 AM24.3 °C22.6 °C90 %1013.5 hPa16.1 kmNE (40°)5.6 km/hOvercast
4:15 AM24.2 °C22.6 °C91 %1013.5 hPa16.1 kmCalmMostly Cloudy
4:35 AM24 °C22.6 °C92 %1013.9 hPa16.1 kmCalmMostly Cloudy
4:55 AM24 °C22.7 °C92 %1013.9 hPa16.1 kmCalmOvercast
5:15 AM23.8 °C22.7 °C94 %1013.9 hPa16.1 kmCalmOvercast
5:35 AM23.7 °C22.6 °C94 %1013.9 hPa16.1 kmCalmOvercast
5:55 AM23.8 °C22.7 °C94 %1014.2 hPa16.1 kmCalmOvercast
6:15 AM24 °C22.8 °C93 %1014.2 hPa16.1 kmNorth (10°)5.6 km/hOvercast
6:35 AM23.8 °C22.7 °C94 %1014.6 hPa16.1 kmCalmOvercast
6:55 AM23.8 °C22.7 °C94 %1014.6 hPa11.3 kmNorth (350°)5.6 km/hOvercast
7:15 AM24 °C22.7 °C92 %1014.6 hPa16.1 kmCalmOvercast
7:35 AM24.3 °C22.8 °C91 %1014.6 hPa16.1 kmNNE (30°)7.4 km/hOvercast
7:55 AM24.7 °C23 °C90 %1014.9 hPa16.1 kmNE (40°)11.1 km/hOvercast
8:15 AM25.2 °C23 °C88 %1015.2 hPa16.1 kmENE (70°)13 km/hScattered Clouds
8:35 AM25.4 °C23.1 °C87 %1015.2 hPa16.1 kmEast (80°)14.8 km/hScattered Clouds
8:55 AM25.8 °C23.2 °C85 %1015.6 hPa16.1 kmEast (90°)9.3 km/hMostly Cloudy
9:15 AM27 °C23.8 °C83 %1015.6 hPa16.1 kmEast (100°)11.1 km/hMostly Cloudy
9:35 AM27.7 °C24 °C80 %1015.6 hPa16.1 kmEast (80°)7.4 km/hScattered Clouds
9:55 AM28.1 °C24.1 °C79 %1015.6 hPa16.1 kmEast (90°)9.3 km/hScattered Clouds
10:15 AM28.6 °C24.1 °C76 %1015.6 hPa16.1 kmCalmClear
10:35 AM29 °C24.5 °C77 %1015.6 hPa16.1 kmSE (140°)5.6 km/hMostly Cloudy
10:55 AM29.2 °C24.3 °C75 %1015.6 hPa16.1 kmSE (140°)5.6 km/hOvercast
11:15 AM29.4 °C24 °C73 %1015.6 hPa16.1 kmCalmMostly Cloudy
11:35 AM29.1 °C24.1 °C74 %1015.9 hPa16.1 kmCalmOvercast
11:55 AM29.6 °C24.1 °C72 %1015.6 hPa16.1 kmCalmMostly Cloudy
12:15 PM29.6 °C24.3 °C73 %1015.6 hPa16.1 kmCalmOvercast
12:35 PM29.5 °C24.3 °C73 %1015.2 hPa16.1 kmNNE (30°)5.6 km/hOvercast
12:55 PM30.4 °C24.4 °C70 %1015.2 hPa16.1 kmNorth (10°)7.4 km/hScattered Clouds
1:15 PM30.5 °C24.5 °C70 %1015.2 hPa16.1 kmSE (130°)5.6 km/hScattered Clouds
1:35 PM26.9 °C25 °C89 %1015.6 hPa4 kmSSE (150°)20.4 km/h25.9 km/h0.25 mmRainRain
1:55 PM26.4 °C24.3 °C88 %1015.2 hPa8 kmSE (140°)9.3 km/h0.25 mmRainRain
2:15 PM25.7 °C24 °C90 %1015.2 hPa11.3 kmEast (80°)14.8 km/hOvercast
2:35 PM26.3 °C24.1 °C88 %1015.2 hPa16.1 kmEast (100°)13 km/hThunderstormThunderstorm
2:55 PM26.8 °C24.1 °C85 %1015.2 hPa16.1 kmNNE (30°)13 km/hMostly Cloudy
3:15 PM26.8 °C23.9 °C84 %1015.2 hPa16.1 kmENE (70°)9.3 km/hMostly Cloudy
3:35 PM27.1 °C24.1 °C84 %1014.9 hPa16.1 kmNE (50°)7.4 km/hScattered Clouds
3:55 PM27 °C24.1 °C84 %1014.6 hPa16.1 kmENE (60°)5.6 km/hThunderstormThunderstorm
4:15 PM27.2 °C24.2 °C84 %1014.9 hPa16.1 kmENE (70°)5.6 km/hThunderstormThunderstorm
4:35 PM26 °C24 °C89 %1015.6 hPa11.3 kmWest (270°)9.3 km/hRain-ThunderstormLight Thunderstorms and Rain
4:55 PM24.6 °C23.4 °C93 %1015.6 hPa4 kmWest (260°)13 km/hRain-ThunderstormHeavy Thunderstorms and Rain
5:15 PM24.2 °C23.2 °C94 %1015.2 hPa2.4 kmSouth (190°)9.3 km/hRain-ThunderstormHeavy Thunderstorms and Rain
5:35 PM24.5 °C23 °C91 %1014.9 hPa11.3 kmEast (100°)7.4 km/hRainLight Rain
5:55 PM24.8 °C23.2 °C91 %1014.9 hPa16.1 kmSE (140°)5.6 km/hMostly Cloudy
6:15 PM25.6 °C23.9 °C90 %1014.2 hPa16.1 kmCalmMostly Cloudy
6:35 PM27 °C24.6 °C87 %1014.2 hPa16.1 kmCalmOvercast
6:55 PM27.2 °C24.7 °C86 %1014.2 hPa16.1 kmCalmMostly Cloudy
7:15 PM27.5 °C24.3 °C83 %1014.6 hPa16.1 kmCalmOvercast
7:35 PM27 °C25 °C89 %1014.9 hPa16.1 kmCalmScattered Clouds
7:55 PM27.1 °C25.2 °C89 %1014.6 hPa16.1 kmCalmClear
8:15 PM26.6 °C25.2 °C92 %1014.6 hPa16.1 kmCalmClear
8:35 PM26.1 °C24.8 °C92 %1014.6 hPa11.3 kmCalmClear
8:55 PM25.5 °C24.5 °C94 %1014.6 hPa11.3 kmCalmClear
9:15 PM25.5 °C24.5 °C94 %1014.9 hPa11.3 kmCalmClear
9:35 PM25 °C24.4 °C96 %1015.2 hPa6.4 kmCalmClear
9:55 PM24.9 °C24.2 °C96 %1015.9 hPa4 kmCalmMist
10:15 PM24.9 °C24.2 °C96 %1015.9 hPa11.3 kmCalmClear
10:35 PM25.2 °C24.5 °C96 %1016.3 hPa11.3 kmCalmClear
10:55 PM24.8 °C24 °C95 %1016.3 hPa8 kmCalmClear
11:15 PM25 °C24.2 °C95 %1016.3 hPa8 kmCalmClear
11:35 PM24.2 °C23.6 °C96 %1016.3 hPa6.4 kmCalmClear
11:55 PM24.5 °C23.8 °C96 %1016.6 hPa8 kmCalmClear
Hourly data recorded from KORG, located 0 kilometers away from Mauriceville, Texas







STORIES FROM OUR PARTNERS